Weather History for Sisseton, SD

Change the Weather History Date:

Monday, September 9, 2013

  Actual Average Record
Temperature  
Mean Temperature 74 °F 63 °F  
Max Temperature 83 °F 75 °F 99 °F (1952)
Min Temperature 65 °F 50 °F 37 °F (2008)
Degree Days  
Heating Degree Days 0 5  
Month to date heating degree days 11 33  
Since 1 July heating degree days 60 76  
Cooling Degree Days 9 2  
Month to date cooling degree days 52 24  
Year to date cooling degree days 587 503  
Growing Degree Days 24 (Base 50)    
Moisture  
Dew Point 66 °F    
Average Humidity 81    
Maximum Humidity 100    
Minimum Humidity 62    
Precipitation  
Precipitation 0.01 in 0.08 in 1.36 in (1991)
Month to date precipitation 0.03 0.65  
Year to date precipitation 18.70 17.39  
Sea Level Pressure  
Sea Level Pressure 29.67 in    
Wind  
Wind Speed 8 mph (WSW)    
Max Wind Speed 20 mph    
Max Gust Speed 26 mph    
T = Trace of Precipitation, MM = Missing Value Source: NWS Daily Summary

Daily Weather History Graph

Daily Weather History Graph

Search for Another Location

Airport:

Trip Planner

Search our weather history database for the weather conditions in past years. The results will help you decide how hot, cold, wet, or windy it might be!

Date:

Astronomy

Sep. 09, 2013 Rise Set
Actual Time 6:59 AM CDT 7:50 PM CDT
Civil Twilight 6:29 AM CDT 8:20 PM CDT
Nautical Twilight 5:53 AM CDT 8:56 PM CDT
Astronomical Twilight 5:15 AM CDT 9:33 PM CDT
Moon 11:38 AM CDT (9/9) 9:51 PM CDT (9/9)
Length of Visible Light 13h 51m
Length of Day
12h 50m
Waxing Crescent, 19% of the Moon is Illuminated
Sep 9
Waxing Crescent
Sep 12
First Quarter
Sep 19
Full
Sep 26
Last Quarter
Oct 4
New

Hourly Weather History & Observations

Time (CDT) Temp. Heat Index Dew Point Humidity Pressure Visibility Wind Dir Wind Speed Gust Speed Precip Events Conditions
12:56 AM 66.9 °F - 66.0 °F 97% 29.76 in - South 6.9 mph - N/A   Unknown
1:56 AM 66.9 °F - 64.9 °F 93% 29.72 in - SSE 6.9 mph - N/A   Unknown
2:56 AM 66.9 °F - 64.9 °F 93% 29.69 in - SSE 6.9 mph - N/A   Unknown
3:56 AM 66.9 °F - 64.9 °F 93% 29.68 in - SSE 4.6 mph - N/A   Unknown
4:56 AM 66.0 °F - 64.9 °F 96% 29.75 in - NNW 16.1 mph 21.9 mph N/A   Unknown
5:56 AM 66.0 °F - 64.9 °F 96% 29.67 in - East 6.9 mph - 0.01 in   Unknown
6:56 AM 66.0 °F - 64.9 °F 96% 29.65 in - SE 5.8 mph - N/A   Unknown
7:56 AM 68.0 °F - 66.0 °F 93% 29.63 in - SSE 9.2 mph - N/A   Unknown
8:56 AM 68.0 °F - 66.9 °F 96% 29.65 in - South 5.8 mph - N/A   Unknown
9:56 AM 68.0 °F - 68.0 °F 100% 29.63 in - South 6.9 mph - N/A   Unknown
10:56 AM 71.1 °F - 69.1 °F 93% 29.62 in - Variable 6.9 mph - N/A   Unknown
11:56 AM 75.9 °F - 71.1 °F 85% 29.60 in - South 4.6 mph - N/A   Unknown
12:56 PM 81.0 °F 84.4 °F 70.0 °F 69% 29.59 in - West 6.9 mph - N/A   Unknown
1:56 PM 82.0 °F 84.9 °F 68.0 °F 62% 29.59 in - West 12.7 mph - N/A   Unknown
2:56 PM 81.0 °F 83.3 °F 66.9 °F 62% 29.60 in - WNW 13.8 mph - N/A   Unknown
3:56 PM 79.0 °F - 66.0 °F 64% 29.61 in - West 17.3 mph 25.3 mph N/A   Unknown
4:56 PM 78.1 °F - 66.0 °F 66% 29.64 in - NNW 13.8 mph 25.3 mph N/A   Unknown
5:56 PM 78.1 °F - 64.9 °F 64% 29.67 in - NNW 13.8 mph 24.2 mph N/A   Unknown
6:56 PM 75.0 °F - 64.0 °F 69% 29.69 in - NW 11.5 mph - N/A   Unknown
7:56 PM 73.0 °F - 64.9 °F 76% 29.71 in - NNW 3.5 mph - N/A   Unknown
8:56 PM 71.1 °F - 66.0 °F 84% 29.74 in - NNW 3.5 mph - N/A   Unknown
9:56 PM 70.0 °F - 64.9 °F 84% 29.77 in - WNW 5.8 mph - N/A   Unknown
10:56 PM 69.1 °F - 64.9 °F 87% 29.75 in - North 6.9 mph - N/A   Unknown
11:56 PM 66.9 °F - 64.0 °F 90% 29.77 in - Calm Calm - N/A   Unknown